sat.trackr.live / text

‹ back to catalog

STARLINK-36714

NORAD 67924 · 2026-036W

PAYLOAD ACTIVE UNKNOWN

§ Identity

Operator
Country
US
Launch date
2026-02-22
Launch site
AFETR
Launch vehicle
Mass (kg)
RCS (m²)

Purposes: comms

External: N2YO · Heavens-Above · Gunter

§ Orbital elements

Epoch: 2026-05-24T13:23:38.747040Z

Period
94.27 min
Inclination
43.0014°
Eccentricity
0.0001659
Mean motion
15.27578150 rev/d
Perigee alt
481.9 km
Apogee alt
484.2 km
Semi-major
6,861.2 km
B*
2.4773e-4
RAAN
176.9282°
Arg perigee
276.3593°
Mean anomaly
83.7070°
Rev number
1,532

§ Raw data

STARLINK-367141 67924U 26036W   26144.55808735  .00006561  00000+0  24773-3 0  99962 67924  43.0014 176.9282 0001659 276.3593  83.7070 15.27578150 15320

JSON: /api/v1/satellites/67924 · /tle

For live sub-satellite position, see the globe view (requires WebGL).

§ Visibility from observer

Set your observer location to see the next 7 days of passes ≥ 10°. The values pass through the URL so the page stays shareable.

No JS? Fill the form by hand. The geolocation button needs JavaScript.